GLOBALSTAR M001 1 25162U 98008A 12036.70128885 -.00000084 00000-0 10000-3 0 721 2 25162 052.0038 135.4363 0002206 089.1434 270.9671 12.38011093639288 GLOBALSTAR M004 1 25163U 98008B 12036.73619624 -.00000086 00000-0 10000-3 0 1409 2 25163 051.9980 180.2627 0001818 268.3625 091.7032 12.63180628644954 GLOBALSTAR M002 1 25164U 98008C 12036.67635753 -.00000071 +00000-0 +10000-3 0 00294 2 25164 052.0010 236.3784 0000549 098.9789 261.1098 11.61432344617032 GLOBALSTAR M003 1 25165U 98008D 12036.86101907 -.00000080 00000-0 10000-3 0 1218 2 25165 052.0285 004.8425 0005635 194.6460 165.4221 12.12049889641562 GLOBALSTAR M014 1 25306U 98023A 12036.81437213 -.00000072 +00000-0 +10000-3 0 00297 2 25306 051.9859 261.5509 0002796 049.7305 310.3757 11.65397226622160 GLOBALSTAR M006 1 25307U 98023B 12036.78169470 -.00000086 +00000-0 +10000-3 0 08586 2 25307 051.9977 236.1941 0002076 071.9109 288.1972 12.62268622635913 GLOBALSTAR M015 1 25308U 98023C 12036.64295557 -.00000075 +00000-0 +10000-3 0 08755 2 25308 051.9883 055.1218 0002075 127.4141 232.6875 11.79653330632563 GLOBALSTAR M008 1 25309U 98023D 12036.74910342 -.00000083 +00000-0 +10000-3 0 08280 2 25309 051.9989 305.4818 0002481 310.8561 049.2075 12.35924442634668 GLOBALSTAR M023 1 25621U 99004A 12036.73932924 -.00000086 00000-0 10000-3 0 8302 2 25621 052.0097 150.7918 0012246 146.1002 214.0671 12.62250318599432 GLOBALSTAR M040 1 25622U 99004B 12036.80448643 -.00000086 +00000-0 +10000-3 0 04835 2 25622 051.9924 147.6161 0001727 074.8914 285.2114 12.61740015599413 GLOBALSTAR M036 1 25623U 99004C 12036.72062539 -.00000083 00000-0 10000-3 0 7664 2 25623 051.9969 225.1434 0001159 085.6136 274.4846 12.31446616598062 GLOBALSTAR M038 1 25624U 99004D 12036.72325604 -.00000085 00000-0 10000-3 0 7707 2 25624 052.0009 134.5872 0002468 105.9183 254.1950 12.52551871599651 GLOBALSTAR M022 1 25649U 99012A 12036.78029752 -.00000079 00000-0 10000-3 0 7022 2 25649 052.0040 236.5599 0000525 031.2058 328.8805 12.02447999589350 GLOBALSTAR M041 1 25650U 99012B 12036.42708576 -.00000083 +00000-0 +10000-3 0 07691 2 25650 052.0074 027.4754 0000735 105.9597 254.1338 12.33183118593147 GLOBALSTAR M046 1 25651U 99012C 12036.88348307 -.00000081 +00000-0 +10000-3 0 07737 2 25651 052.0048 015.9961 0000324 149.2176 210.8688 12.19535157593324 GLOBALSTAR M037 1 25652U 99012D 12036.75815601 -.00000086 +00000-0 +10000-3 0 07791 2 25652 052.0034 283.3880 0001566 150.9371 209.1571 12.62204308594980 GLOBALSTAR M045 1 25676U 99019A 12036.82914692 -.00000086 00000-0 10000-3 0 9031 2 25676 051.9973 280.9514 0002056 067.7278 292.3801 12.62267364592584 GLOBALSTAR M019 1 25677U 99019B 12036.54107710 -.00000083 00000-0 10000-3 0 7659 2 25677 051.9936 053.0428 0001940 166.4852 193.6053 12.35924991590938 GLOBALSTAR M044 1 25678U 99019C 12036.60479801 -.00000093 00000-0 00000+0 0 7511 2 25678 052.0017 076.6981 0002159 140.6598 219.4413 12.26532745589139 GLOBALSTAR M042 1 25679U 99019D 12036.68435770 -.00000082 +00000-0 +10000-3 0 08454 2 25679 052.0007 147.3218 0001713 087.6459 272.4585 12.22047221588649 GLOBALSTAR M025 1 25770U 99031A 12036.78214495 -.00000086 +00000-0 +10000-3 0 07385 2 25770 051.9993 326.2317 0000723 046.6945 313.3980 12.62267969583855 GLOBALSTAR M049 1 25771U 99031B 12036.65406009 -.00000062 +00000-0 +10000-3 0 06413 2 25771 051.9891 094.4402 0001556 184.0619 176.0165 11.12072440574448 GLOBALSTAR M047 1 25772U 99031C 12036.74234609 -.00000086 +00000-0 +10000-3 0 08125 2 25772 051.9991 325.9220 0000717 052.7379 307.3552 12.62269507583854 GLOBALSTAR M052 1 25773U 99031D 12036.80209157 -.00000086 +00000-0 +10000-3 0 01261 2 25773 051.9956 324.2980 0000266 117.3003 242.7882 12.62267270583866 GLOBALSTAR M035 1 25851U 99037A 12036.74559066 -.00000061 +00000-0 +10000-3 0 00435 2 25851 051.9936 138.2594 0012626 359.0080 001.0687 11.04487655557000 GLOBALSTAR M032 1 25852U 99037B 12036.69532181 -.00000086 +00000-0 +10000-3 0 07129 2 25852 052.0032 012.1186 0000941 127.1990 232.8960 12.62261099580087 GLOBALSTAR M051 1 25853U 99037C 12036.75192630 -.00000068 +00000-0 +10000-3 0 07151 2 25853 051.9830 293.5628 0001932 327.5778 032.4907 11.42118317574741 GLOBALSTAR M030 1 25854U 99037D 12036.89366821 -.00000086 +00000-0 +10000-3 0 07242 2 25854 052.0026 011.7042 0000535 159.6345 200.4550 12.62288341580109 GLOBALSTAR M048 1 25872U 99041A 12036.49261846 -.00000066 +00000-0 +10000-3 0 05992 2 25872 051.9433 040.0748 0001948 197.1531 162.9214 11.33720919571265 GLOBALSTAR M026 1 25873U 99041B 12036.51018780 -.00000086 +00000-0 +10000-3 0 07469 2 25873 052.0071 059.4190 0001867 141.0007 219.0998 12.62290606578175 GLOBALSTAR M043 1 25874U 99041C 12036.91172991 -.00000065 +00000-0 +10000-3 0 06319 2 25874 051.9410 312.8175 0011393 276.3531 083.5975 11.25629941573326 GLOBALSTAR M028 1 25875U 99041D 12036.57002340 -.00000086 00000-0 10000-3 0 7293 2 25875 052.0053 058.4906 0001311 137.0973 222.9994 12.62286026578183 GLOBALSTAR M024 1 25883U 99043A 12036.90174449 -.00000062 +00000-0 +10000-3 0 06711 2 25883 051.9978 231.6923 0002372 051.8092 308.2916 11.10110783572895 GLOBALSTAR M027 1 25884U 99043B 12036.60328604 -.00000086 +00000-0 +10000-3 0 07192 2 25884 052.0085 104.8803 0001935 134.2001 225.9022 12.62301860575303 GLOBALSTAR M054 1 25885U 99043C 12036.44754158 -.00000067 +00000-0 +10000-3 0 06897 2 25885 052.0165 038.4314 0005450 332.5062 027.5464 11.39155201563142 GLOBALSTAR M053 1 25886U 99043D 12036.56631239 -.00000065 +00000-0 +10000-3 0 04824 2 25886 052.0010 074.7274 0002312 132.4166 227.6833 11.27573729569006 GLOBALSTAR M058 1 25907U 99049A 12036.70809159 -.00000082 +00000-0 +10000-3 0 07022 2 25907 051.9962 235.8060 0001226 102.6024 257.4958 12.24258819569133 GLOBALSTAR M050 1 25908U 99049B 12036.72873641 -.00000079 +00000-0 +10000-3 0 06454 2 25908 051.9971 191.8394 0008659 033.2619 326.8777 12.07325739563390 GLOBALSTAR M033 1 25909U 99049C 12036.62314713 -.00000086 00000-0 10000-3 0 7240 2 25909 051.9990 101.9711 0002711 140.4357 219.6840 12.62281738571547 GLOBALSTAR M055 1 25910U 99049D 12036.68896270 -.00000083 +00000-0 +10000-3 0 07147 2 25910 052.0049 288.8117 0007914 071.4343 288.7377 12.29270586568246 GLOBALSTAR M057 1 25943U 99058A 12036.42872303 -.00000085 +00000-0 +10000-3 0 06406 2 25943 051.9995 268.8894 0001735 102.4709 257.6336 12.48714756566922 GLOBALSTAR M059 1 25944U 99058B 12036.74216685 -.00000086 +00000-0 +10000-3 0 07106 2 25944 052.0041 237.6278 0002285 083.7199 276.3920 12.62269283567544 GLOBALSTAR M056 1 25945U 99058C 12036.72481136 -.00000086 +00000-0 +10000-3 0 00462 2 25945 051.9959 191.2409 0001847 077.6401 282.4669 12.62275097568272 GLOBALSTAR M031 1 25946U 99058D 12036.54710672 -.00000086 +00000-0 +10000-3 0 07369 2 25946 051.9950 192.0970 0001706 082.3737 277.7326 12.62273519568279 GLOBALSTAR M039 1 25961U 99062A 12036.71503479 -.00000086 +00000-0 +10000-3 0 00010 2 25961 051.9963 010.5130 0000895 152.4273 207.6636 12.62272103563914 GLOBALSTAR M034 1 25962U 99062B 12036.46440517 -.00000081 +00000-0 +10000-3 0 03564 2 25962 051.9916 220.0418 0002071 068.8925 291.2158 12.15663608560144 GLOBALSTAR M029 1 25963U 99062C 12036.79441039 -.00000086 +00000-0 +10000-3 0 00316 2 25963 051.9937 145.3529 0001956 139.5180 220.5828 12.62268131573631 GLOBALSTAR M061 1 25964U 99062D 12036.67084318 -.00000074 00000-0 10000-3 0 7018 2 25964 051.9776 216.1617 0006776 140.2135 219.9194 11.76697287546913 GLOBALSTAR M063 1 26081U 00008A 12036.74472350 -.00000086 00000-0 10000-3 0 7828 2 26081 051.9969 191.6202 0001960 078.3563 281.7516 12.62310656561663 GLOBALSTAR M062 1 26082U 00008B 12036.60950640 -.00000084 00000-0 10000-3 0 6633 2 26082 052.0065 042.4546 0000447 179.7544 180.3316 12.42958432552032 GLOBALSTAR M060 1 26083U 00008C 12036.44973872 -.00000081 +00000-0 +10000-3 0 07568 2 26083 052.0036 035.6177 0002594 236.2886 123.7717 12.17472883557997 GLOBALSTAR M064 1 26084U 00008D 12036.60849883 -.00000086 +00000-0 +10000-3 0 09939 2 26084 052.0043 193.8568 0001627 109.1436 250.9609 12.62272179579603 GLOBALSTAR M065 1 31571U 07020A 12036.76435549 -.00000071 00000-0 18037-3 0 4313 2 31571 051.9937 326.1996 0001619 182.1127 177.9734 12.62263636217407 GLOBALSTAR M069 1 31573U 07020C 12036.47503998 -.00000086 +00000-0 +10000-3 0 07228 2 31573 051.9974 282.4184 0000222 156.3177 203.7701 12.62266925218104 GLOBALSTAR M072 1 31574U 07020D 12036.91573840 -.00000098 +00000-0 +31893-4 0 04304 2 31574 052.0107 012.7774 0001197 190.6377 169.4464 12.62269097216665 GLOBALSTAR M071 1 31576U 07020F 12036.84889838 -.00000086 +00000-0 +10000-3 0 07514 2 31576 052.0092 282.5533 0000661 074.7580 285.3355 12.62260292218143 GLOBALSTAR M067 1 32263U 07048A 12036.77402088 -.00000104 00000-0 00000+0 0 4016 2 32263 051.9753 144.5198 0001568 108.1542 251.9498 12.62270760199821 GLOBALSTAR M070 1 32264U 07048B 12036.66069872 -.00000086 +00000-0 +10000-3 0 03467 2 32264 051.9767 235.4328 0000870 069.3385 290.7565 12.62266414198297 GLOBALSTAR M066 1 32265U 07048C 12036.66284665 -.00000104 +00000-0 +00000-0 0 03992 2 32265 051.9684 099.5004 0001950 134.0655 226.0370 12.62268681200520 GLOBALSTAR M068 1 32266U 07048D 12036.47250047 -.00000086 +00000-0 +10000-3 0 04072 2 32266 051.9859 056.9271 0001800 136.7534 223.3475 12.62267381201261 GLOBALSTAR M079 1 37188U 10054A 12036.72013975 -.00000086 +00000-0 +10000-3 0 04111 2 37188 052.0037 236.7142 0000792 087.7333 272.3619 12.62269236060791 GLOBALSTAR M074 1 37189U 10054B 12036.75966539 -.00000102 +00000-0 +85320-5 0 04060 2 37189 052.0013 236.7656 0000966 107.9999 252.0970 12.62270271060798 GLOBALSTAR M076 1 37190U 10054C 12036.70085403 -.00000086 +00000-0 +10000-3 0 04162 2 37190 052.0025 236.6256 0000795 135.8992 224.1933 12.62264792060791 GLOBALSTAR M077 1 37191U 10054D 12036.47035578 -.00000086 +00000-0 +10000-3 0 02747 2 37191 052.0056 192.9108 0001321 092.5495 267.5537 12.62279582061514 GLOBALSTAR M075 1 37192U 10054E 12036.89088919 -.00000086 +00000-0 +10000-3 0 04204 2 37192 051.9977 281.1376 0001065 062.5456 297.5509 12.62271224060057 GLOBALSTAR M073 1 37193U 10054F 12036.56885192 -.00000095 +00000-0 +49665-4 0 04139 2 37193 052.0044 192.1974 0001366 088.8792 271.2223 12.62269648061520 GLOBALSTAR M083 1 37739U 11033A 12036.76846640 -.00000047 +00000-0 +10000-3 0 01921 2 37739 051.9966 267.3121 0027724 024.2286 335.9929 13.74241658028859 GLOBALSTAR M088 1 37740U 11033B 12036.61107883 -.00000086 +00000-0 +10000-3 0 01862 2 37740 051.9740 056.9564 0001265 112.2106 247.8893 12.62267048026334 GLOBALSTAR M091 1 37741U 11033C 12036.87556050 -.00000104 +00000-0 +00000-0 0 01907 2 37741 052.0011 011.0300 0000412 157.8902 202.1983 12.62271056027126 GLOBALSTAR M085 1 37742U 11033D 12036.70529138 -.00000086 +00000-0 +10000-3 0 01955 2 37742 051.9896 326.9104 0000397 080.3272 279.7637 12.62264937027843 GLOBALSTAR M081 1 37743U 11033E 12036.72490340 -.00000086 +00000-0 +10000-3 0 01927 2 37743 051.9991 326.6006 0001225 128.6160 231.4813 12.62265284027882 GLOBALSTAR M089 1 37744U 11033F 12036.69267171 -.00000086 +00000-0 +10000-3 0 01850 2 37744 051.9959 281.8651 0000649 108.5478 251.5455 12.62267526028598